KK7N Weather Reports


time (UTC)temp
F
wind
direction
speed
knots
gust
knots
rain 1hr
in
rain 24hr
in
rain mn
in
humidity
%
barometer
mb
20260902210113 59 0 0.0 3.5 0.12 0.29 0.29 91 1007.0
20260902204558 59 0 0.0 0.0 0.15 0.28 0.28 91 1006.8
20260902203057 59 0 0.0 0.0 0.13 0.25 0.25 91 1006.7
20260902201609 58 0 0.0 0.9 0.10 0.21 0.21 90 1006.8
20260902200057 58 0 0.0 1.7 0.07 0.16 0.16 90 1006.9
20260902194553 59 86 0.9 3.5 0.05 0.13 0.13 89 1007.0
20260902193054 59 84 1.7 3.5 0.05 0.12 0.12 88 1007.1
20260902191602 59 0 0.0 0.0 0.06 0.11 0.11 90 1007.3
20260902190052 59 0 0.0 0.0 0.08 0.09 0.09 88 1007.4
20260902184624 60 0 0.0 2.6 0.08 0.08 0.08 90 1007.7
20260902183057 61 0 0.0 4.3 0.07 0.07 0.07 84 1007.8
20260902181605 62 0 0.9 2.6 0.04 0.04 0.04 82 1007.9
20260902180114 63 0 0.0 0.0 0.01 0.01 0.01 80 1007.6
20260902174555 63 0 0.0 0.9 0.00 0.00 0.00 78 1007.3
20260902173056 63 0 0.0 1.7 0.00 0.00 0.00 76 1007.0
20260902171558 64 132 1.7 2.6 0.00 0.00 0.00 74 1007.0
20260902170054 63 0 0.0 0.0 0.00 0.00 0.00 73 1007.1
20260902164551 63 0 0.0 1.7 0.00 0.00 0.00 70 1006.8
20260902163054 63 0 0.0 2.6 0.00 0.00 0.00 70 1006.9
20260902161556 62 0 0.0 3.5 0.00 0.00 0.00 70 1007.0
20260902160051 62 0 0.0 1.7 0.00 0.00 0.00 70 1007.1
20260902154555 62 171 0.9 3.5 0.00 0.00 0.00 70 1007.3
20260902153052 61 173 0.9 4.3 0.00 0.00 0.00 70 1007.4
20260902151602 61 161 0.9 4.3 0.00 0.00 0.00 71 1007.6
20260902150058 61 143 0.9 4.3 0.00 0.00 0.00 71 1007.7
20260902144607 61 178 0.0 2.6 0.00 0.00 0.00 72 1007.8
20260902143055 60 180 0.0 1.7 0.00 0.00 0.00 72 1008.0
20260902141548 60 98 1.7 3.5 0.00 0.00 0.00 73 1008.2
20260902140055 60 116 0.0 2.6 0.00 0.00 0.00 72 1008.5
20260902134558 60 0 0.0 2.6 0.00 0.00 0.00 72 1008.7
20260902133056 60 123 0.0 2.6 0.00 0.00 0.00 72 1009.0
20260902131556 60 0 0.9 2.6 0.00 0.00 0.00 72 1009.1
20260902130103 60 0 0.0 2.6 0.00 0.00 0.00 74 1009.3
20260902124556 60 0 0.0 0.0 0.00 0.00 0.00 73 1009.6
20260902123057 60 0 0.0 0.0 0.00 0.00 0.00 72 1009.7
20260902121556 60 168 0.0 0.9 0.00 0.00 0.00 72 1009.9
20260902120053 60 0 0.0 0.0 0.00 0.00 0.00 74 1010.0
20260902114555 60 0 0.0 0.0 0.00 0.00 0.00 74 1010.2
20260902113054 60 0 0.0 0.0 0.00 0.00 0.00 76 1010.3
20260902111552 60 0 0.0 0.0 0.00 0.00 0.00 74 1010.5
20260902110055 60 0 0.0 0.0 0.00 0.00 0.00 75 1010.6
20260902104551 61 0 0.0 0.0 0.00 0.00 0.00 72 1010.7
20260902103052 61 0 0.0 1.7 0.00 0.00 0.00 72 1010.7
20260902101549 61 122 0.0 0.0 0.00 0.00 0.00 72 1010.8
20260902100104 61 0 0.0 2.6 0.00 0.00 0.00 71 1010.9
20260902094607 61 207 0.0 3.5 0.00 0.00 0.00 72 1011.2
20260902093050 61 174 0.0 2.6 0.00 0.00 0.00 72 1011.2
20260902091555 61 0 1.7 4.3 0.00 0.00 0.00 73 1011.4
20260902090046 61 0 0.9 6.1 0.00 0.00 0.00 73 1011.4
20260902084553 61 181 0.0 4.3 0.00 0.00 0.00 74 1011.5
20260902083055 61 167 0.0 3.5 0.00 0.00 0.00 74 1011.6
20260902081548 61 0 0.0 0.9 0.00 0.00 0.00 72 1011.4
20260902080111 61 186 0.0 1.7 0.00 0.00 0.00 72 1011.4
20260902074552 62 161 0.9 2.6 0.00 0.00 0.00 72 1011.6
20260902073048 62 0 0.0 0.9 0.00 0.00 0.00 71 1011.6
20260902071553 62 0 0.0 0.9 0.00 0.00 0.00 70 1011.7
20260902070101 62 184 0.0 2.6 0.00 0.00 0.00 70 1012.0
20260902064607 62 200 0.9 6.1 0.00 0.00 0.00 70 1012.0
20260902063054 62 0 0.0 2.6 0.00 0.00 0.00 69 1012.1
20260902061558 63 159 0.0 4.3 0.00 0.00 0.00 69 1012.0
20260902060100 63 202 0.0 2.6 0.00 0.00 0.00 68 1012.0
20260902054547 64 193 0.9 5.2 0.00 0.00 0.00 67 1012.3
20260902053059 64 179 0.9 4.3 0.00 0.00 0.00 67 1012.3
20260902051553 64 223 0.9 6.1 0.00 0.00 0.00 67 1012.2
20260902050053 64 211 1.7 6.1 0.00 0.00 0.00 67 1012.2
20260902044557 64 188 3.5 6.1 0.00 0.00 0.00 67 1012.1
20260902043058 64 203 2.6 5.2 0.00 0.00 0.00 66 1012.0
20260902041553 64 219 1.7 6.1 0.00 0.00 0.00 66 1012.0
20260902040054 65 169 1.7 7.8 0.00 0.00 0.00 65 1012.0
20260902034601 65 210 3.5 10.4 0.00 0.00 0.00 64 1011.9
20260902033107 65 243 2.6 5.2 0.00 0.00 0.00 63 1011.7
20260902031557 66 176 1.7 7.8 0.00 0.00 0.00 63 1011.6
20260902030053 66 261 1.7 8.7 0.00 0.00 0.00 62 1011.6
20260902024548 67 227 2.6 8.7 0.00 0.00 0.00 61 1011.6
20260902023052 67 220 1.7 6.1 0.00 0.00 0.00 60 1011.4
20260902021606 67 228 3.5 9.6 0.00 0.00 0.00 59 1011.3
20260902020050 67 202 1.7 9.6 0.00 0.00 0.00 58 1011.4
20260902014549 68 241 3.5 9.6 0.00 0.00 0.00 57 1011.3
20260902013103 68 206 2.6 7.0 0.00 0.00 0.00 57 1011.3
20260902011548 68 232 5.2 9.6 0.00 0.00 0.00 56 1011.3
20260902004557 69 202 1.7 8.7 0.00 0.00 0.00 57 1010.9
20260902003053 69 286 2.6 7.8 0.00 0.00 0.00 57 1010.9
20260902001546 69 331 2.6 6.1 0.00 0.00 0.00 57 1010.9
20260902000057 70 250 1.7 7.0 0.00 0.00 0.00 55 1010.9
20260901234556 69 314 1.7 7.8 0.00 0.00 0.00 57 1011.1
20260901233051 70 270 2.6 8.7 0.00 0.00 0.00 57 1011.2
20260901231555 70 205 2.6 7.0 0.00 0.00 0.00 56 1011.3
20260901230055 70 279 1.7 7.0 0.00 0.00 0.00 57 1011.3
20260901224559 70 292 1.7 5.2 0.00 0.00 0.00 56 1011.3
20260901223057 69 284 2.6 4.3 0.00 0.00 0.00 57 1011.4
20260901221554 69 210 1.7 7.0 0.00 0.00 0.00 56 1011.3
20260901220059 69 227 0.9 5.2 0.00 0.00 0.00 57 1011.4
20260901214559 69 263 3.5 7.8 0.00 0.00 0.00 57 1011.4
20260901213100 68 293 4.3 7.8 0.00 0.00 0.00 58 1011.5
20260901211554 67 213 1.7 7.0 0.00 0.00 0.00 60 1011.6